Regional Weather Roundup
Issued by NWS Jackson, KY

Home | Current Version | Previous Version | Graphics & Text | Print | Product List | Glossary On
Versions: 1 2 3 4 5 6 7 8 9 10 11 12 13 14 15 16 17 18 19 20 21 22 23 24 25 26 27 28 29 30 31 32 33 34 35 36 37 38 39 40 41 42 43 44 45 46 47 48 49 50
000
ASUS43 KJKL 201810
RWRJKL

EAST KENTUCKY HOURLY WEATHER ROUNDUP
NATIONAL WEATHER SERVICE JACKSON KY
200 PM EDT MON OCT 20 2014

NOTE: "FAIR" INDICATES FEW OR NO CLOUDS BELOW 12,000 FEET WITH
NO SIGNIFICANT WEATHER AND/OR OBSTRUCTIONS TO VISIBILITY.

* THESE REPORTS ARE NOT UNDER NWS QUALITY CONTROL AND MAY NOT
  REPORT WEATHER SUCH AS PRECIPITATION AND FOG.

KYZ079-080-083-085-087-088-110-112-115-119-120-201900
...EASTERN KENTUCKY...

CITY           SKY/WX    TMP DP  RH WIND       PRES   REMARKS
JACKSON        LGT RAIN  53  48  83 VRB5      29.99F
6HR MIN TEMP:  40; 6HR MAX TEMP:  55; 6HR PCP:  0.01;

LONDON         CLOUDY    58  49  72 W8        30.01F
6HR MIN TEMP:  41; 6HR MAX TEMP:  61; 6HR PCP: TRACE;

SOMERSET*      CLOUDY    55  45  67 SW6       30.02F
MONTICELLO*    CLOUDY    59  50  72 S8        30.01F
6HR MIN TEMP:  37; 6HR MAX TEMP:  61;

MIDDLESBORO*   PTSUNNY   63  48  57 S8        30.02F
6HR MIN TEMP:  39; 6HR MAX TEMP:  64;

HARLAN APT*    CLOUDY    61  45  55 CALM      30.02F
BLACK MTN*       N/A     52  45  76 W3          N/A
PIKEVILLE APT* DRIZZLE   55  46  71 CALM      29.99F
BIG SANDY*     CLOUDY    57  47  69 S8        29.99F
6HR MIN TEMP:  41; 6HR MAX TEMP:  57;

MOREHEAD APT*  CLOUDY    57  48  72 SW10G25   30.00F
$$

KYZ035-036-041-042-044-050-067-078-099-201900
...CENTRAL KENTUCKY...

CITY           SKY/WX    TMP DP  RH WIND       PRES   REMARKS
MT STERLING*   PTSUNNY   55  48  76 W12G20    29.99F
FLEMING/MASON* CLOUDY    57  46  67 SW16      29.96F
DANVILLE*      CLOUDY    57  46  67 SW10      30.00F
RICHMOND*      CLOUDY    55  46  71 SW8G16    29.99F
LEXINGTON      PTSUNNY   59  49  69 SW16      29.97F
6HR MIN TEMP:  48; 6HR MAX TEMP:  59; 6HR PCP:  0.06;

FRANKFORT      PTSUNNY   60  50  69 SW10      29.94F
6HR MIN TEMP:  47; 6HR MAX TEMP:  60; 6HR PCP:  0.04;

$$

KYZ091>093-OHZ055-061-077-WVZ005-015-034-035-042-201900
...SOUTHERN OHIO/WEST VIRGINIA...

CITY           SKY/WX    TMP DP  RH WIND       PRES   REMARKS
COVINGTON      PTSUNNY   61  49  64 S15G25    29.90F
COLUMBUS       PTSUNNY   60  45  57 S13       29.88F
DAYTON         CLOUDY    61  47  59 SW15      29.88F
WILMINGTON       N/A    N/A N/A N/A MISG      29.88F
HUNTINGTON     CLOUDY    56  48  74 SW9       29.96F
CHARLESTON     LGT RAIN  55  48  77 S6        29.97F
PINEVILLE*     CLOUDY    62  48  60 MISG      30.05F
BECKLEY        CLOUDY    58  40  51 SW12      30.01F
BLUEFIELD      MOSUNNY   63  41  44 W12G18    30.01F
$$

VAZ002-007-008-TNZ017-027-036-066-071-201900
...SOUTHWEST VIRGINIA/EAST TENNESSEE...

CITY           SKY/WX    TMP DP  RH WIND       PRES   REMARKS
WISE*          CLOUDY    59  41  51 SW16      30.05F
JONESVILLE*    CLOUDY    64  45  48 SW10      30.04F
ABINGDON*      PTSUNNY   63  47  55 W9G17     30.04F
BRISTOL        MOSUNNY   64  47  53 SW15      30.03F
KNOXVILLE      PTSUNNY   66  50  56 SW18      30.02F
OAK RIDGE      MOSUNNY   66  49  54 VRB7      30.05F
CROSSVILLE     CLOUDY    61  45  55 VRB5      30.05F
NASHVILLE      PTSUNNY   65  48  54 SW7       30.04F
$$

...KEY TO REMARKS...
VSB - VISIBILITY IN MILES
WCI - WIND CHILL INDEX
HX  - HEAT INDEX

$$


USA.gov is the U.S. government's official web portal to all federal, state and local government web resources and services.